Tracking 31027 objects as of 19-Jul-2025
HD Live streaming from Space Station
objects crossing your sky now

STARLINK-32224

Track STARLINK-32224 now!
10-day predictions
STARLINK-32224 is classified as:


NORAD ID: 60941
Int'l Code: 2024-155T
Perigee: 481.4 km
Apogee: 483.4 km
Inclination: 53.2 °
Period: 94.1 minutes
Semi major axis: 6853 km
RCS: Unknown
Launch date: August 31, 2024
Source: United States (US)
Launch site: AIR FORCE WESTERN TEST RANGE (AFWTR)
Your satellite tracking list
STARLINK-31009
Track 1 satellite(s)




NASA's NSSDC Master Catalog

Two Line Element Set (TLE):
1 60941U 24155T   25199.82034220  .00000959  00000-0  44519-4 0  9994
2 60941  53.1598 136.0212 0001489 103.2043 256.9124 15.30178557 50470
Source of the keplerian elements: AFSPC